Russell, KS

9:04 PM CST on January 20, 2017 (GMT -0600)
Russell Municipal

Weather History for KRSL - June, 2013

Change the Weather History Date:

Friday, June 28, 2013

  Actual Average Record
Temperature  
Mean Temperature 81 °F -  
Max Temperature 97 °F 92 °F 109 °F (2012)
Min Temperature 66 °F 66 °F 53 °F (1951)
Cooling Degree Days 16    
Growing Degree Days 31 (Base 50)    
Moisture  
Dew Point 59 °F    
Average Humidity 53    
Maximum Humidity 90    
Minimum Humidity 22    
Precipitation  
Precipitation 0.00 in - - ()
Sea Level Pressure  
Sea Level Pressure 29.98 in    
Wind  
Wind Speed 8 mph (NNW)    
Max Wind Speed 21 mph    
Max Gust Speed 28 mph    
Visibility 10 miles    
Events      
Averages and records for this station are not official NWS values.
T = Trace of Precipitation, MM = Missing Value Source: NWS Daily Summary

Daily Weather History Graph

Daily Weather History Graph

Search for Another Location

Airport or City:

Trip Planner

Search our weather history database for the weather conditions in past years. The results will help you decide how hot, cold, wet, or windy it might be!

Date:

Astronomy

Jun. 28, 2013 Rise Set
Actual Time 6:12 AM CDT 9:04 PM CDT
Civil Twilight 5:40 AM CDT 9:36 PM CDT
Nautical Twilight 5:00 AM CDT 10:16 PM CDT
Astronomical Twilight 4:14 AM CDT 11:02 PM CDT
Moon 12:05 AM CDT (6/28) 12:18 PM CDT (6/28)
Length of Visible Light 15h 56m
Length of Day
14h 52m
Waning Gibbous, 66% of the Moon is Illuminated
Jun 28
Waning Gibbous
Jun 29
Last Quarter
Jul 8
New
Jul 15
First Quarter
Jul 22
Full

Hourly Weather History & Observations

Time (CDT) Temp. Heat Index Dew Point Humidity Pressure Visibility Wind Dir Wind Speed Gust Speed Precip Events Conditions
12:53 AM 71.1 °F - 64.9 °F 81% 29.98 in 10.0 mi North 4.6 mph - N/A   Clear
1:53 AM 68.0 °F - 64.0 °F 87% 29.98 in 10.0 mi West 4.6 mph - N/A   Clear
2:53 AM 66.9 °F - 64.0 °F 90% 29.96 in 10.0 mi West 4.6 mph - N/A   Clear
3:53 AM 66.0 °F - 63.0 °F 90% 29.96 in 10.0 mi Calm Calm - N/A   Clear
4:53 AM 66.0 °F - 63.0 °F 90% 30.01 in 10.0 mi NW 8.1 mph - N/A   Clear
5:53 AM 66.9 °F - 64.0 °F 90% 30.03 in 10.0 mi NNW 8.1 mph - N/A   Clear
6:53 AM 68.0 °F - 64.0 °F 87% 30.05 in 10.0 mi NW 8.1 mph - N/A   Clear
7:53 AM 73.0 °F - 66.0 °F 79% 30.05 in 10.0 mi WNW 9.2 mph - N/A   Clear
8:53 AM 81.0 °F 82.2 °F 63.0 °F 54% 30.04 in 10.0 mi NW 8.1 mph - N/A   Clear
9:53 AM 87.1 °F 87.8 °F 63.0 °F 44% 30.02 in 10.0 mi NW 9.2 mph - N/A   Clear
10:53 AM 90.0 °F 92.4 °F 66.0 °F 45% 30.01 in 10.0 mi North 13.8 mph - N/A   Clear
11:53 AM 91.0 °F 92.6 °F 64.0 °F 41% 30.02 in 10.0 mi North 17.3 mph 24.2 mph N/A   Clear
12:53 PM 93.0 °F 93.0 °F 61.0 °F 34% 30.01 in 10.0 mi NNE 16.1 mph 23.0 mph N/A   Clear
1:53 PM 93.9 °F 92.9 °F 57.9 °F 30% 29.99 in 10.0 mi North 15.0 mph 21.9 mph N/A   Clear
2:53 PM 95.0 °F 94.0 °F 57.9 °F 29% 29.96 in 10.0 mi North 16.1 mph 20.7 mph N/A   Clear
3:53 PM 96.1 °F 93.5 °F 53.1 °F 23% 29.94 in 10.0 mi NNW 11.5 mph 23.0 mph N/A   Clear
4:53 PM 96.1 °F - 52.0 °F 22% 29.94 in 10.0 mi North 20.7 mph 27.6 mph N/A   Clear
5:53 PM 95.0 °F - 51.1 °F 22% 29.93 in 10.0 mi North 13.8 mph 25.3 mph N/A   Clear
6:53 PM 93.0 °F - 51.1 °F 24% 29.92 in 10.0 mi North 17.3 mph 21.9 mph N/A   Clear
7:53 PM 90.0 °F - 51.1 °F 26% 29.92 in 10.0 mi North 13.8 mph - N/A   Clear
8:53 PM 82.9 °F 81.8 °F 53.1 °F 36% 29.93 in 10.0 mi NE 6.9 mph - N/A   Clear
9:53 PM 77.0 °F - 53.1 °F 43% 29.94 in 10.0 mi NE 4.6 mph - N/A   Clear
10:53 PM 75.9 °F - 54.0 °F 46% 29.94 in 10.0 mi NNE 8.1 mph - N/A   Clear
11:53 PM 73.0 °F - 54.0 °F 51% 29.95 in 10.0 mi ENE 4.6 mph - N/A   Clear